www.pogodaiklimat.ru

Погода и климат >> Архив погоды >> Россия >> Самарская область >> Аглос


ПОГОДА в Аглосе

  • Прогноз погоды в Аглосе
  • Монитор погоды в Аглосе

АРХИВ ПОГОДЫ в Аглосе

Время (UTC), дата Ветер
(напр.,м/с)
 
Видим.   Явления Облачность Т
(С)
Тd
(С)
f
(%)
Тe
(С)
Тes
(С)
Комфортность P
(гПа)
Po
(гПа)
Тmin
(С)
Tmax
(С)
R
(мм)
R24
(мм)
S
(см)
06 16.08 ЮВ 1 20 км 3/0
[Cc]
+26.4 +13.6 45 +28 +38 жарко 1016.2 1007.9
09 16.08 Ю 3 20 км 9/0
[Cs]
+30.3 +12.1 33 +31 +40 жарко 1014.9 1006.6
12 16.08 Ю 3 50 км 9/0
[Cs]
+30.6 +12.2 32 +31 +36 жарко 1013.8 1005.6
15 16.08 Ю 1 50 км 10/0
[Ci]
+29.3 +12.2 35 +30 +31 жарко 1013.3 1005.1 +31.4
18 16.08 Ю 1 50 км 10/0
[Cs]
+24.1 +11.1 44 +25 +25 комфорт 1013.7 1005.3
21 16.08 ЮЗ 1 50 км {ливн. осадки} 9/8 720 м
[Cb cap Ac As]
+23.3 +11.8 48 +26 +26 жарко 1013.7 1005.3 +33.0 0.0
00 17.08 Ю 3 50 км 9/0
[Ac cast Cc]
+21.9 +13.2 58 +25 +25 комфорт 1014.0 1005.5
03 17.08 штиль 0 50 км 9/0
[Ac cast Cc]
+20.8 +13.3 62 +23 +24 комфорт 1014.5 1006.0 +19.9
06 17.08 Ю 1 50 км 9/0
[Ac As Ci]
+26.7 +10.0 35 +27 +34 жарко 1015.0 1006.7
09 17.08 Ю 3 50 км 8/0
[Ac As Ci]
+30.8 +7.5 23 +30 +36 жарко 1014.8 1006.5
12 17.08 Ю 4 50 км 8/0
[Cc]
+32.5 +4.3 17 +30 +34 жарко 1014.0 1005.8
15 17.08 штиль 0 50 км 8/0
[Ac As Cs]
+28.2 +7.8 28 +28 +28 жарко 1014.2 1005.9 +32.5
18 17.08 ЮЗ 1 50 км 8/0
[Ac trans Ci fib]
+21.9 +9.6 45 +23 +23 комфорт 1014.5 1006.0
21 17.08 ЮВ 2 50 км 8/0
[Ac trans Ci fib]
+23.0 +8.5 39 +24 +24 комфорт 1014.2 1005.8
00 18.08 ЮЗ 2 50 км 10/0
[Ac und]
+22.5 +10.8 48 +25 +25 комфорт 1015.0 1006.6
03 18.08 СВ 2 20 км 10/0
[Ac As Cs]
+19.7 +13.3 67 +22 +23 комфорт 1015.0 1006.5 +19.7
06 18.08 В 1 50 км 5/0
[Ac trans Ci fib]
+29.1 +10.8 32 +29 +37 жарко 1015.1 1006.8 +19.1
09 18.08 Ю 5
{11}
50 км 8/0
[Ac trans Ci]
+32.7 +1.4 14 +30 +34 жарко 1015.5 1007.2
12 18.08 Ю 3
{11}
50 км слаб. ливневой дождь 10/10 1000 м
[Cb cap]
+26.6 +10.4 36 +27 +27 жарко 1017.7 1009.3
15 18.08 штиль 0 50 км {ливн. осадки} 9/8 720 м
[Cb cap Ac As]
+26.2 +9.7 35 +27 +27 жарко 1017.3 1008.9 +33.0 0.0
18 18.08 СВ 1 50 км {ливн. осадки} 10/6 1000 м
[Sc diur, vesp Ac As]
+23.5 +9.7 42 +25 +25 комфорт 1017.7 1009.2
21 18.08 ЮВ 2 20 км слаб. ливневой дождь 10/5 600 м
[Cb cap Ac As]
+23.0 +10.0 44 +25 +25 комфорт 1018.0 1009.5
00 19.08 С 1 50 км {ливн. осадки} 8/0
[Ac As]
+19.8 +10.0 53 +22 +22 комфорт 1018.5 1009.9
03 19.08 С 1 50 км в посл. час ливневой дождь 8/3 600 м
[Cb cap Ac As]
+19.5 +12.9 66 +22 +22 комфорт 1019.2 1010.6 +19.0 0.0
06 19.08 Ю 1 20 км {ливн. осадки} 6/3 1000 м
[Sc diur, vesp Ac trans Ci fib]
+27.9 +11.3 36 +29 +34 жарко 1019.1 1010.7
09 19.08 Ю 5
{10}
20 км 9/3 1000 м
[Cu hum Ci]
+33.9 +4.0 15 +31 +35 жарко 1018.6 1010.4
12 19.08 Ю 4
{11}
20 км 8/3 1000 м
[Cu hum Ci ing]
+35.6 +1.4 12 +32 +35 жарко 1018.0 1009.8
15 19.08 ЮВ 2 20 км 10/3 1000 м
[Sc Cc]
+31.9 +8.1 23 +31 +31 жарко 1017.5 1009.3 +36.1
18 19.08 Ю 1 50 км 3/0
[Ci fib]
+27.7 +7.5 28 +27 +27 жарко 1018.0 1009.6
21 19.08 ЮЗ 3 50 км 8/0
[Ac trans]
+24.7 +7.8 34 +25 +25 комфорт 1018.2 1009.7
00 20.08 ЮЗ 1 50 км 8/0
[Ac trans]
+21.3 +10.8 51 +23 +23 комфорт 1018.1 1009.6
03 20.08 ЮЗ 2 50 км слаб. ливневой дождь 9/9 1000 м
[Cb cap]
+20.9 +12.0 57 +24 +24 комфорт 1018.3 1009.8 +20.2 0.0
06 20.08 ЮЗ 1 20 км {ливн. осадки} 1/0
[Ci fib]
+29.5 +9.7 29 +29 +39 жарко 1018.4 1010.1
09 20.08 З 3 20 км 8/0
[Cs]
+33.3 +9.3 23 +32 +41 жарко 1018.2 1010.0
12 20.08 СЗ 2 20 км 8/0
[Cs]
+33.4 +12.1 27 +33 +39 жарко 1017.6 1009.4
15 20.08 С 3 20 км 3/0
[Ci fib]
+29.3 +16.2 45 +32 +33 душно 1017.8 1009.5 +34.1 0.0
18 20.08 С 2 50 км ясно +23.5 +15.1 59 +26 +26 жарко 1019.0 1010.5
21 20.08 СВ 2 50 км ясно +20.3 +15.6 74 +24 +24 комфорт 1019.2 1010.6
00 21.08 С 2 50 км 8/0
[Ci sp]
+19.0 +16.1 83 +21 +21 комфорт 1019.7 1011.1
03 21.08 штиль 0 20 км 1/0
[Ci sp]
+18.8 +16.7 88 +20 +21 1019.9 1011.3 +16.4
06 21.08 СВ 4 50 км ясно +23.5 +15.9 62 +27 +32 душно 1020.2 1011.7
09 21.08 С 4
{11}
50 км 3/3 600 м
[Cu med, cong]
+26.7 +14.7 48 +29 +35 жарко 1020.0 1011.6
12 21.08 С 5
{10}
50 км 3/3 1000 м
[Sc diur, vesp Ci fib]
+27.8 +13.0 40 +29 +32 жарко 1019.3 1011.0
15 21.08 СВ 5 50 км 3/3 1000 м
[Cu med, cong]
+25.8 +13.3 46 +28 +28 жарко 1020.0 1011.6 +28.1
18 21.08 СВ 3 50 км ясно +21.0 +14.3 66 +24 +24 комфорт 1021.3 1012.8
21 21.08 СВ 1 50 км ясно +17.7 +15.5 87 +19 +19 1021.1 1012.4
00 22.08 С 1 50 км ясно +15.1 +14.6 97 +16 +16 1021.7 1013.0
03 22.08 СВ 1 20 км 3/0
[Ci fib]
+17.3 +16.5 95 +18 +19 1022.2 1013.5 +13.8
06 22.08 С 3 50 км 3/0
[Ci fib]
+23.1 +15.9 64 +28 +34 душно 1021.9 1013.4
09 22.08 СВ 4 50 км 5/3 600 м
[Cu hum Ci fib]
+26.7 +13.3 44 +29 +34 жарко 1021.1 1012.7
12 22.08 СВ 3 50 км 5/0
[Ci fib]
+28.2 +12.9 39 +30 +34 жарко 1020.1 1011.7
15 22.08 СВ 2 50 км 3/0
[Ci fib]
+26.1 +13.0 44 +28 +28 жарко 1019.8 1011.4 +28.5
18 22.08 СВ 1 50 км ясно +21.1 +13.4 61 +23 +23 комфорт 1020.2 1011.6
21 22.08 ЮЗ 1 50 км ясно +15.8 +14.6 93 +16 +16 1020.9 1012.2
00 23.08 СЗ 1 50 км 1/0
[Ci fib]
+14.7 +14.3 97 +15 +15 1020.8 1012.0
03 23.08 штиль 0 20 км 3/0
[Ci sp]
+16.5 +15.5 94 +16 +17 1021.1 1012.4 +14.2

 

Местоположение метеостанции Аглос (Самарская область, Россия): широта 52.97 долгота 50.10 высота над уровнем моря 72 м.

В архиве по умолчанию представлена погода в Аглосе за последнюю неделю. Архивные данные за месяц целиком и за предыдущие месяцы, начиная с января 2011 года, Вы можете получить, выбрав интересующий диапазон дат из раскрывающегося списка и нажав кнопку "Ввод!".


*Определитесь, кто Вы:
робот инопланетянин человек

Внимание! Время в таблицах - всемирное. Для получения местного времени необходимо прибавить поправку, которая равна 4 ч.

Смотрите также архив погоды в соседних городах и на ближайших метеорологических станциях:

Погода в Чапаевске (Самарская область, Россия) (25 км)
Погода в Самаре АМС (Самарская область, Россия) (26 км)
Погода в Самаре-Центр (Самарская область, Россия) (26 км)
Погода в Самаре (Самарская область, Россия) (32 км)
Погода в Безенчуке (Самарская область, Россия) (45 км)
Погода в Красносамарском (Самарская область, Россия) (49 км)
Погода в Курумоче (Самарская область, Россия) (59 км)
Погода в Тольятти (дамба) (Самарская область, Россия) (70 км)
Погода в Большая Глушица (Самарская область, Россия) (70 км)
Погода в Богатом (Самарская область, Россия) (79 км)

Пояснения к столбцам:

Ветер - указаны скорость ветра в м/с - средняя за 10 мин, порывы в срок и между сроками (в фигурных скобках) и направление, откуда дует ветер: С - северный, СВ - северо-восточный, В - восточный, ЮВ - юго-восточный, Ю - южный, ЮЗ - юго-западный, З - западный, СЗ - северо-западный.
Видимость - горизонтальная дальность видимости в метрах или километрах. При видимости от 1 до 10 км при отсутствии осадков обычно наблюдается дымка, при ухудшении видимости до 1 км и менее - туман. В сухую погоду видимость может ухудшаться дымом, пылью или мглою.
Явления - указаны атмосферные явления, наблюдавшиеся в срок или в последний час перед сроком; фигурными скобками обозначены явления, наблюдавшиеся между сроками (за 1-3 часа до срока); квадратными скобками обозначены град или гололедные отложения с указанием их диаметра в мм.
Облачность - указаны через наклонную черту общая и нижняя облачность в баллах и высота нижней границы облаков в метрах; квадратными скобками обозначены формы облаков: Ci - перистые, Cs - перисто-слоистые, Cc - перисто-кучевые, Ac - высококучевые, As - высокослоистые, Sc - слоисто-кучевые, Ns - слоисто-дождевые, Cu - кучевые, Cb - кучево-дождевые. Подробнее классификацию облаков см. в Атласе облаков (PDF).
T - Температура воздуха - температура, измеренная на высоте 2 м над землей.
Td - Температура точки росы - температура, при понижении до которой содержащийся в воздухе водяной пар достигнет насыщения.
f - Относительная влажность воздуха - влажноcть воздуха, измеренная на высоте 2 м над землей.
Te - Эффективная температура - температура, которую ощущает одетый по сезону человек в тени. Характеристика душности погоды. При расчете учитывается влияние влажности воздуха и скорости ветра на теплоощущения человека.
Tes - Эффективная температура на солнце - температура, которую ощущает человек, с поправкой на солнечный нагрев. Характеристика знойности погоды. Зависит от высоты солнца над горизонтом, облачности и скорости ветра. Ночью, в пасмурную погоду, а также при ветре 12 м/с и более поправка равна нулю.
P - Атмосферное давление - приведенное к уровню моря атмосферное давление.
Po - Атмосферное давление - измеренное на уровне метеостанции атмосферное давление.
Tmin - Минимальная температура - минимум температуры воздуха на высоте 2 м над землей.
Tmax - Максимальная температура - максимум температуры воздуха на высоте 2 м над землей.
R - Количество осадков - Количество выпавших осадков за период времени, мм. При наведении курсора мыши на число - период времени, за который выпало указанное количество осадков.
R24 - Количество осадков - Количество выпавших осадков за 24 часа, мм.
S - Снежный покров - Высота снежного покрова, см. При наведении курсора мыши на число - состояние снежного покрова и степень покрытия местности в баллах.